Regional Weather Roundup
Issued by NWS

Home | Current Version | Previous Version | Text Only | Print | Product List | Glossary On
Versions: 1 2 3 4 5 6 7 8 9 10 11 12 13 14 15 16 17 18 19 20 21 22 23 24 25 26 27 28 29 30 31 32 33 34 35 36 37 38 39 40 41 42 43 44 45 46 47 48 49 50
000
ASUS44 KOUN 170710
RWROK

WEATHER ROUNDUP FOR OKLAHOMA
NATIONAL WEATHER SERVICE NORMAN OK
200 AM CDT WED SEP 17 2014

NOTE: "FAIR" INDICATES FEW OR NO CLOUDS BELOW 12,000 FEET WITH NO
      SIGNIFICANT WEATHER AND/OR OBSTRUCTIONS TO VISIBILITY.

OKZ001>007-009>012-014-015-017-170800-
NORTHWEST OKLAHOMA AND THE PANHANDLE

CITY           SKY/WX    TMP DP  RH WIND       PRES   REMARKS
GAGE           CLEAR     70  65  84 S15       29.99F
ENID/WOODRING    N/A     68  68 100 S3        29.96F FOG
$$

OKZ016-021>023-033>039-044-045-170800-
SOUTHWEST OKLAHOMA

CITY           SKY/WX    TMP DP  RH WIND       PRES   REMARKS
LAWTON/REGL    MOCLDY    73  68  84 CALM      30.00F
LAWTON/FT SILL MOCLDY    73  69  86 SE3       30.00S
FREDERICK      MOCLDY    75  68  78 W3        29.98F
CLINTON        CLOUDY    74  65  73 S8        30.04S
HOBART         CLOUDY    74  66  76 SW8       30.03S
ALTUS AFB      MOCLDY    72  69  92 SE3       30.01F
$$

OKZ018>020-024>031-170800-
CENTRAL OKLAHOMA

CITY           SKY/WX    TMP DP  RH WIND       PRES   REMARKS
OKLAHOMA CITY  MOCLDY    72  67  84 S6        30.01F
OKC/WILEY POST PTCLDY    74  68  81 S8        30.00F
OKC/TINKER AFB PTCLDY    72  68  89 S7        30.02S
STILLWATER     CLEAR     69  67  93 SE6       29.99F
GUTHRIE        CLEAR     72  70  93 S9        29.99F
$$

OKZ008-013-054>072-170800-
NORTHEAST OKLAHOMA

CITY           SKY/WX    TMP DP  RH WIND       PRES   REMARKS
TULSA          PTCLDY    72  69  90 S9        29.98F
TULSA/JONES    CLEAR     70  67  90 S5        29.99F
PONCA CITY     CLEAR     70  66  87 S12       29.97F
BARTLESVILLE   CLEAR     62  62 100 CALM      30.00F
MUSKOGEE       CLEAR     69  67  93 S8        30.02S
$$

OKZ032-040>043-046>053-073>077-170800-
SOUTH CENTRAL/SOUTHEAST OKLAHOMA

CITY           SKY/WX    TMP DP  RH WIND       PRES   REMARKS
ARDMORE/DWNTWN MOCLDY    72  70  94 CALM      30.00F
MCALESTER      CLEAR     72  69  90 CALM      30.02S
$$



USA.gov is the U.S. government's official web portal to all federal, state and local government web resources and services.